CZ-3A DEB, 35563

Orbit data source: Space-Track

CZ-3A DEB, 35563 is space debris in HEO originally from a launch on Fri, 02 Feb 2007 UTC launched from the Xichang Space Center, China (XSC). Debris objects in space refer to the collection of defunct objects orbiting the Earth. Examples of debris include non-operational satellites, rocket bodies, and fragments generated from explosions, collisions, or faulty payload assembly.

Loading next visibility...
Identifier
35563, 2007-003X
Orbit
HEO
Country
Flag of CNCN / PRC
Related business
Manufacturer
Unknown
Mission
Spacecraft
Bus & Motor
Unknown
Mass
Unknown
Launch date (UTC)
2007-02-02 (19 years ago)
Launch vehicle
Unknown
Launch site
Xichang Space Center, China (XSC)
Object type
Payload
Rocket body
Debris
Shape & HBR
Unknown shape, 0.2 m
Radar Cross Section
Small (<0.1 m²)

Expand to show TLE details & history
Last TLE update: 8 months ago

TLE from 8 months ago
0 CZ-3A DEB
1 35563U 07003X   25053.36779919 -.00000155  00000-0  50089-2 0  9994
2 35563  22.8569 304.4657 7449414 209.9172 354.9437  1.89836547  6954
Epoch: 2025-02-22T08:49Z
TLE epoch observation values (Epoch: 2025-02-22T08:49:37.850Z)
Latitude
6.46953°
Longitude
-175.94511°
Altitude
1,704.432 km
Speed
9.174 km/s
True Right ascension
07h 15m 54s
True Declination
6° 26' 08"
Sunlit
Object was in full shadow at epoch
Visualization orbit readout
Latitude
Unknown
Longitude
Unknown
Altitude
Unknown
Speed
Unknown
Apparent Right ascension
Unknown
Apparent Declination
Unknown
Sunlit
N/A
Visualization observer readout
Local Sidereal Time
13:41:00
Azimuth
Unknown
Elevation
Unknown
Doppler factor
Unknown
Orbital elements
Apogee altitude
41,705.288 km
Perigee altitude
650.231 km
Semi-major axis
27,555.897 km
Eccentricity
0.74494
Inclination
22.8569°
RAAN
304.4657°
Arg. of periapsis
209.9172°
True anomaly
313.08766°
Mean anomaly
354.9437°
Eccentric anomaly
341.16187°
Mean motion
0.47448 °/min
Orbital period
758.72 mins
BSTAR
0.0050089
Loading maneuver chart data...
Computing Atmospheric mass density...
Loading historical data...
Loading historical data...
Loading historical data...
Loading historical data...
Loading historical data...
Loading historical data...
Loading historical data...

Documentation

Showing up to 5 results
|